Weather History for Pittsfield, IL

Change the Weather History Date:

Monday, September 1, 2014

  Actual Average (KUIN) Record (KUIN)
Temperature  
Mean Temperature 76 °F 72 °F  
Max Temperature 82 °F 82 °F 104 °F (2011)
Min Temperature 70 °F 62 °F 41 °F (1949)
Degree Days  
Heating Degree Days 0 0  
Month to date heating degree days 0  
Since 1 July heating degree days 5  
Cooling Degree Days 11 7  
Month to date cooling degree days 7  
Year to date cooling degree days 960  
Growing Degree Days 26 (Base 50)    
Moisture  
Dew Point 67 °F    
Average Humidity 73    
Maximum Humidity 92    
Minimum Humidity 54    
Precipitation  
Precipitation 0.15 in 0.11 in 1.97 in (1931)
Month to date precipitation 0.11  
Year to date precipitation 25.86  
Sea Level Pressure  
Sea Level Pressure 29.86 in    
Wind  
Wind Speed 8 mph (SW)    
Max Wind Speed 24 mph    
Max Gust Speed 37 mph    
Visibility 10 miles    
Events Rain , Thunderstorm    
T = Trace of Precipitation, MM = Missing Value Source: NWS Daily Summary

Daily Weather History Graph

Daily Weather History Graph

Search for Another Location

Airport:

Trip Planner

Search our weather history database for the weather conditions in past years. The results will help you decide how hot, cold, wet, or windy it might be!

Date:

Astronomy

Sep. 01, 2014 Rise Set
Actual Time 6:31 AM CDT 7:34 PM CDT
Civil Twilight 6:03 AM CDT 8:01 PM CDT
Nautical Twilight 5:30 AM CDT 8:34 PM CDT
Astronomical Twilight 4:56 AM CDT 9:08 PM CDT
Moon 1:15 PM CDT (9/1) 11:36 PM CDT (9/1)
Length of Visible Light 13h 58m
Length of Day
13h 02m
Waxing Crescent, 42% of the Moon is Illuminated
Sep 1
Waxing Crescent
Sep 2
First Quarter
Sep 8
Full
Sep 15
Last Quarter
Sep 24
New

Hourly Weather History & Observations

Time (CDT) Temp. Heat Index Dew Point Humidity Pressure Visibility Wind Dir Wind Speed Gust Speed Precip Events Conditions
12:15 AM 74.5 °F - 70.2 °F 86% 29.87 in 10.0 mi South 5.8 mph - N/A   Clear
12:35 AM 74.7 °F - 70.0 °F 85% 29.86 in 10.0 mi South 5.8 mph - N/A   Clear
12:55 AM 75.2 °F - 69.8 °F 83% 29.86 in 10.0 mi SSE 5.8 mph - N/A   Clear
1:15 AM 75.4 °F - 70.2 °F 84% 29.87 in 10.0 mi SSW 5.8 mph - N/A   Clear
1:35 AM 76.3 °F - 70.3 °F 82% 29.87 in 10.0 mi South 6.9 mph - N/A   Clear
1:55 AM 77.0 °F - 69.8 °F 78% 29.86 in 10.0 mi South 6.9 mph - N/A   Clear
2:15 AM 76.1 °F - 70.2 °F 82% 29.85 in 10.0 mi South 8.1 mph - N/A   Clear
2:35 AM 75.9 °F - 70.0 °F 82% 29.85 in 10.0 mi SSW 8.1 mph - N/A   Scattered Clouds
2:55 AM 75.7 °F - 70.2 °F 83% 29.85 in 10.0 mi SSW 8.1 mph - N/A   Scattered Clouds
3:15 AM 76.1 °F - 70.0 °F 81% 29.84 in 10.0 mi SSW 9.2 mph - N/A   Clear
3:35 AM 76.1 °F - 69.8 °F 81% 29.83 in 10.0 mi SSW 10.4 mph - N/A   Clear
3:55 AM 75.7 °F - 69.8 °F 82% 29.83 in 10.0 mi South 8.1 mph - N/A   Clear
4:15 AM 75.2 °F - 69.6 °F 83% 29.83 in 10.0 mi SSW 6.9 mph - N/A   Clear
4:35 AM 75.2 °F - 69.3 °F 82% 29.83 in 10.0 mi South 6.9 mph - N/A   Clear
4:55 AM 74.3 °F - 69.1 °F 84% 29.83 in 10.0 mi South 5.8 mph - N/A   Clear
5:15 AM 74.1 °F - 68.7 °F 83% 29.84 in 10.0 mi South 5.8 mph - N/A   Clear
5:35 AM 73.6 °F - 68.7 °F 85% 29.85 in 10.0 mi SSW 4.6 mph - N/A   Clear
6:15 AM 72.9 °F - 65.7 °F 78% 29.88 in 10.0 mi WSW 11.5 mph 17.3 mph N/A   Mostly Cloudy
6:35 AM 72.7 °F - 64.0 °F 74% 29.88 in 10.0 mi SW 8.1 mph - N/A   Mostly Cloudy
6:55 AM 72.1 °F - 62.8 °F 72% 29.88 in 10.0 mi WSW 15.0 mph 21.9 mph N/A   Scattered Clouds
7:15 AM 71.2 °F - 62.8 °F 75% 29.85 in 10.0 mi SSW 10.4 mph 17.3 mph N/A   Light Drizzle
7:35 AM 70.3 °F - 62.8 °F 77% 29.71 in 10.0 mi SSE 24.2 mph 33.4 mph N/A   Clear
7:55 AM 70.0 °F - 62.4 °F 77% 29.69 in 10.0 mi South 20.7 mph 36.8 mph N/A   Clear
8:15 AM 70.7 °F - 62.4 °F 75% 29.72 in 10.0 mi Calm Calm - N/A   Clear
8:35 AM 71.6 °F - 62.6 °F 73% 29.78 in 10.0 mi WSW 9.2 mph - N/A   Clear
8:55 AM 71.6 °F - 62.6 °F 73% 29.79 in 10.0 mi SW 10.4 mph - N/A   Clear
9:15 AM 72.9 °F - 63.5 °F 72% 29.80 in 10.0 mi West 6.9 mph - N/A   Clear
9:35 AM 74.5 °F - 63.9 °F 69% 29.81 in 10.0 mi West 8.1 mph - N/A   Clear
9:55 AM 76.6 °F - 63.5 °F 64% 29.83 in 10.0 mi WSW 11.5 mph 16.1 mph N/A   Clear
10:15 AM 76.1 °F - 63.0 °F 64% 29.85 in 10.0 mi WSW 13.8 mph 20.7 mph N/A   Clear
10:35 AM 76.3 °F - 63.5 °F 64% 29.85 in 10.0 mi WSW 12.7 mph - N/A   Clear
10:55 AM 76.8 °F - 63.3 °F 63% 29.86 in 10.0 mi WSW 18.4 mph 25.3 mph N/A   Clear
11:15 AM 77.9 °F - 64.2 °F 63% 29.86 in 10.0 mi WSW 12.7 mph 21.9 mph N/A   Clear
11:35 AM 77.9 °F - 63.9 °F 62% 29.87 in 10.0 mi West 15.0 mph 21.9 mph N/A   Clear
12:15 PM 77.5 °F - 63.7 °F 62% 29.90 in 10.0 mi WSW 13.8 mph 20.7 mph N/A   Scattered Clouds
12:35 PM 77.7 °F - 63.7 °F 62% 29.89 in 10.0 mi West 12.7 mph 20.7 mph N/A   Scattered Clouds
12:55 PM 78.1 °F - 63.5 °F 61% 29.90 in 10.0 mi West 12.7 mph 20.7 mph N/A   Clear
1:15 PM 78.8 °F - 63.5 °F 59% 29.89 in 10.0 mi WSW 15.0 mph 19.6 mph N/A   Clear
1:35 PM 79.7 °F - 64.2 °F 59% 29.90 in 10.0 mi West 9.2 mph - N/A   Clear
1:55 PM 80.6 °F 82.3 °F 64.8 °F 58% 29.90 in 10.0 mi WSW 10.4 mph - N/A   Scattered Clouds
2:15 PM 81.0 °F 82.7 °F 64.8 °F 58% 29.90 in 10.0 mi West 10.4 mph - N/A   Scattered Clouds
2:35 PM 81.0 °F 82.7 °F 65.1 °F 58% 29.89 in 10.0 mi West 8.1 mph - N/A   Scattered Clouds
2:55 PM 81.7 °F 83.5 °F 65.1 °F 57% 29.89 in 10.0 mi West 11.5 mph 16.1 mph N/A   Scattered Clouds
3:15 PM 81.7 °F 83.5 °F 64.9 °F 57% 29.88 in 10.0 mi WSW 9.2 mph - N/A   Clear
3:35 PM 82.4 °F 83.9 °F 64.2 °F 54% 29.88 in 10.0 mi WSW 10.4 mph - N/A   Clear
3:55 PM 82.6 °F 84.3 °F 65.1 °F 55% 29.88 in 10.0 mi SW 6.9 mph - N/A   Clear
4:15 PM 82.2 °F 84.2 °F 65.7 °F 57% 29.88 in 10.0 mi SW 8.1 mph - N/A   Clear
4:35 PM 81.5 °F 83.6 °F 65.8 °F 59% 29.89 in 10.0 mi SW 9.2 mph - N/A   Scattered Clouds
4:55 PM 81.7 °F 83.6 °F 65.5 °F 58% 29.89 in 10.0 mi WSW 10.4 mph - N/A   Scattered Clouds
5:15 PM 82.2 °F 84.2 °F 65.7 °F 57% 29.89 in 10.0 mi WSW 8.1 mph - N/A   Mostly Cloudy
5:35 PM 82.0 °F 84.1 °F 66.0 °F 58% 29.89 in 10.0 mi SW 10.4 mph - N/A   Scattered Clouds
5:55 PM 82.4 °F 84.6 °F 66.2 °F 58% 29.89 in 10.0 mi WSW 8.1 mph - N/A   Scattered Clouds
6:15 PM 80.6 °F 82.7 °F 66.2 °F 61% 29.88 in 10.0 mi WSW 6.9 mph - N/A   Mostly Cloudy
6:35 PM 79.9 °F - 67.1 °F 65% 29.88 in 10.0 mi SW 3.5 mph - N/A   Overcast
6:55 PM 78.8 °F - 66.9 °F 67% 29.88 in 10.0 mi SSW 4.6 mph - N/A   Mostly Cloudy
7:15 PM 77.7 °F - 67.1 °F 70% 29.88 in 10.0 mi South 3.5 mph - N/A   Scattered Clouds
7:35 PM 76.8 °F - 68.2 °F 75% 29.87 in 10.0 mi South 3.5 mph - N/A   Mostly Cloudy
7:55 PM 76.5 °F - 68.0 °F 75% 29.86 in 10.0 mi Calm Calm - N/A Thunderstorm Overcast
8:15 PM 76.1 °F - 68.0 °F 76% 29.87 in 10.0 mi South 4.6 mph - N/A Thunderstorm Overcast
8:35 PM 76.1 °F - 68.0 °F 76% 29.91 in 10.0 mi SSW 10.4 mph - N/A Rain , Thunderstorm Light Thunderstorms and Rain
8:55 PM 72.5 °F - 68.4 °F 87% 29.90 in 7.0 mi South 10.4 mph 19.6 mph 0.12 in Rain , Thunderstorm Light Thunderstorms and Rain
9:15 PM 72.1 °F - 68.9 °F 89% 29.90 in 10.0 mi South 10.4 mph - N/A Rain , Thunderstorm Light Thunderstorms and Rain
9:35 PM 72.0 °F - 69.1 °F 91% 29.91 in 10.0 mi South 9.2 mph - 0.01 in Rain , Thunderstorm Rain
9:55 PM 71.8 °F - 69.1 °F 91% 29.92 in 10.0 mi South 5.8 mph - 0.02 in Rain Light Rain
10:15 PM 71.6 °F - 68.9 °F 91% 29.92 in 10.0 mi SSE 4.6 mph - N/A Rain , Thunderstorm Light Thunderstorms and Rain
10:35 PM 71.2 °F - 68.9 °F 92% 29.92 in 10.0 mi South 3.5 mph - 0.01 in Thunderstorm Thunderstorm
10:55 PM 71.2 °F - 68.9 °F 92% 29.91 in 10.0 mi Calm Calm - 0.01 in   Mostly Cloudy
11:15 PM 71.6 °F - 68.9 °F 91% 29.90 in 10.0 mi Calm Calm - N/A Thunderstorm Scattered Clouds
11:35 PM 71.1 °F - 68.7 °F 92% 29.90 in 7.0 mi Calm Calm - N/A   Clear
11:55 PM 70.9 °F - 68.5 °F 92% 29.91 in 10.0 mi South 3.5 mph - N/A   Scattered Clouds